Weather History for KLWD - September, 2013

Change the Weather History Date:

Saturday, September 28, 2013

  Actual Average Record
Temperature  
Mean Temperature 60 °F 60 °F  
Max Temperature 70 °F 71 °F - ()
Min Temperature 50 °F 49 °F - ()
Degree Days  
Heating Degree Days 5 6  
Month to date heating degree days 32 78  
Since 1 July heating degree days 41 86  
Cooling Degree Days 0 1  
Month to date cooling degree days 194 92  
Year to date cooling degree days 1063 930  
Growing Degree Days 11 (Base 50)    
Moisture  
Dew Point 57 °F    
Average Humidity 80    
Maximum Humidity 93    
Minimum Humidity 67    
Precipitation  
Precipitation 0.28 in 0.09 in - ()
Month to date precipitation 3.40 3.30  
Sea Level Pressure  
Sea Level Pressure 29.91 in    
Wind  
Wind Speed 9 mph (WSW)    
Max Wind Speed 24 mph    
Max Gust Speed 31 mph    
Visibility 9 miles    
Events Rain , Thunderstorm    
T = Trace of Precipitation, MM = Missing Value Source: NWS Daily Summary

Daily Weather History Graph

Daily Weather History Graph

Search for Another Location

Airport or City:

Trip Planner

Search our weather history database for the weather conditions in past years. The results will help you decide how hot, cold, wet, or windy it might be!

Date:

Astronomy

Sep. 28, 2013 Rise Set
Actual Time 7:09 AM CDT 7:02 PM CDT
Civil Twilight 6:42 AM CDT 7:29 PM CDT
Nautical Twilight 6:10 AM CDT 8:01 PM CDT
Astronomical Twilight 5:38 AM CDT 8:33 PM CDT
Moon 12:56 AM CDT (9/28) 3:22 PM CDT (9/28)
Length of Visible Light 12h 47m
Length of Day
11h 52m
Waning Crescent, 36% of the Moon is Illuminated
Sep 28
Waning Crescent
Oct 4
New
Oct 11
First Quarter
Oct 18
Full
Oct 26
Last Quarter

Hourly Weather History & Observations

Time (CDT) Temp. Dew Point Humidity Pressure Visibility Wind Dir Wind Speed Gust Speed Precip Events Conditions
12:53 AM 70.0 °F 62.1 °F 76% 29.84 in 10.0 mi SSE 12.7 mph 19.6 mph N/A   Partly Cloudy
1:53 AM 70.0 °F 62.1 °F 76% 29.83 in 10.0 mi SSE 12.7 mph 18.4 mph N/A   Clear
2:53 AM 69.1 °F 62.1 °F 78% 29.83 in 10.0 mi South 12.7 mph 21.9 mph 0.01 in   Clear
3:53 AM 68.0 °F 62.1 °F 81% 29.82 in 10.0 mi SSE 9.2 mph 18.4 mph N/A   Scattered Clouds
4:53 AM 68.0 °F 62.1 °F 81% 29.81 in 10.0 mi SSE 9.2 mph 17.3 mph N/A   Overcast
5:53 AM 70.0 °F 61.0 °F 73% 29.81 in 10.0 mi SSE 9.2 mph 18.4 mph N/A   Overcast
6:43 AM 69.8 °F 60.8 °F 73% 29.83 in 10.0 mi South 10.4 mph 18.4 mph N/A Thunderstorm Overcast
6:53 AM 70.0 °F 61.0 °F 73% 29.83 in 9.0 mi South 9.2 mph 20.7 mph 0.00 in Rain , Thunderstorm Light Thunderstorms and Rain
7:40 AM 66.2 °F 62.6 °F 88% 29.85 in 10.0 mi South 9.2 mph 17.3 mph 0.22 in Rain Light Rain
7:53 AM 66.0 °F 63.0 °F 90% 29.83 in 9.0 mi SSE 8.1 mph - 0.22 in   Overcast
8:53 AM 66.0 °F 63.0 °F 90% 29.83 in 10.0 mi SSE 11.5 mph - N/A   Overcast
9:53 AM 66.9 °F 64.0 °F 90% 29.83 in 8.0 mi South 12.7 mph 19.6 mph 0.01 in Rain Light Rain
10:27 AM 66.2 °F 64.4 °F 94% 29.85 in 6.0 mi South 11.5 mph 19.6 mph 0.03 in Rain Light Rain
10:51 AM 66.2 °F 64.4 °F 94% 29.84 in 6.0 mi South 13.8 mph 24.2 mph 0.04 in Rain Light Rain
10:53 AM 66.9 °F 64.0 °F 90% 29.83 in 6.0 mi South 15.0 mph 24.2 mph 0.04 in Rain Light Rain
11:53 AM 66.9 °F 64.9 °F 93% 29.85 in 2.5 mi SSW 17.3 mph - 0.01 in   Overcast
12:02 PM 60.8 °F 57.2 °F 88% 29.89 in 3.0 mi WNW 20.7 mph 31.1 mph 0.00 in Rain Light Rain
12:22 PM 57.2 °F 55.4 °F 94% 29.91 in 9.0 mi WNW 17.3 mph 28.8 mph 0.00 in   Overcast
12:42 PM 57.2 °F 55.4 °F 94% 29.92 in 10.0 mi WNW 17.3 mph 24.2 mph 0.00 in   Overcast
12:53 PM 57.0 °F 55.0 °F 93% 29.92 in 10.0 mi NW 11.5 mph 21.9 mph 0.00 in   Overcast
1:36 PM 57.2 °F 53.6 °F 88% 29.93 in 10.0 mi NW 10.4 mph - 0.00 in   Overcast
1:53 PM 57.0 °F 54.0 °F 89% 29.93 in 10.0 mi NW 9.2 mph - 0.00 in   Overcast
2:53 PM 59.0 °F 54.0 °F 83% 29.94 in 10.0 mi WNW 9.2 mph - N/A   Overcast
3:08 PM 60.8 °F 53.6 °F 77% 29.96 in 10.0 mi NW 10.4 mph - N/A   Overcast
3:53 PM 61.0 °F 54.0 °F 78% 29.95 in 10.0 mi NW 9.2 mph - N/A   Overcast
4:21 PM 60.8 °F 51.8 °F 72% 29.97 in 10.0 mi WNW 11.5 mph - N/A   Scattered Clouds
4:40 PM 62.6 °F 53.6 °F 72% 29.98 in 10.0 mi WNW 9.2 mph - N/A   Mostly Cloudy
4:53 PM 62.1 °F 51.1 °F 67% 29.97 in 10.0 mi NW 10.4 mph - N/A   Scattered Clouds
5:53 PM 62.1 °F 51.1 °F 67% 29.99 in 10.0 mi NW 8.1 mph - N/A   Partly Cloudy
6:53 PM 61.0 °F 50.0 °F 67% 29.99 in 10.0 mi NW 3.5 mph - N/A   Clear
7:53 PM 57.9 °F 51.1 °F 78% 30.01 in 10.0 mi SW 3.5 mph - N/A   Clear
8:53 PM 54.0 °F 50.0 °F 86% 30.03 in 10.0 mi West 4.6 mph - N/A   Clear
9:53 PM 53.1 °F 48.9 °F 86% 30.05 in 10.0 mi West 4.6 mph - N/A   Clear
10:53 PM 52.0 °F 48.0 °F 86% 30.06 in 9.0 mi West 5.8 mph - N/A   Clear
11:53 PM 51.1 °F 46.9 °F 86% 30.08 in 10.0 mi WNW 5.8 mph - N/A   Clear